Flag for United Kingdom Weather past 2 weeks in Dundee, Scotland, United Kingdom

Now
54 °F

Scattered clouds.


Feels Like: 54 °F
Forecast: 44 / 58 °F
Wind: 2 mph from West

Location: Dundee / Riverside

Current Time: Aug 31, 2015 at 8:42:01 AM

Latest Report: Aug 31, 2015 at 8:20 AM


Visibility: N/A

Pressure: 30.07 "Hg

Humidity: 88%

Dew point: 50 °F

Location of DundeeLocation

Historic Weather in Dundee — Graph

°F

Dundee temperature yesterday

Maximum temperature yesterday: 64 °F (at 11:50 AM)
Minimum temperature yesterday: 57 °F (at 8:20 PM)
Average temperature yesterday: 62 °F

Past Weeks' High & Low Weather Summary

 TemperatureHumidityPressure
High72 °F (Aug 19, 1:50 PM)100% (Aug 17, 6:20 AM)30.12 "Hg (Aug 17, 6:20 AM)
Low46 °F (Aug 17, 6:20 AM)52% (Aug 17, 2:20 PM)29.27 "Hg (Aug 26, 11:20 AM)
Average62 °F78%29.77 "Hg
* Reported Aug 16 8:50 AM — Aug 31 6:50 AM, Dundee, Weather by CustomWeather, © 2015

Note: Actual official high and low records may vary slightly from our data, if they occured in-between our weather recording intervals... More about our weather records

Advertising

Dundee weather history for previous 24 hours

 ConditionsComfort  
Time TempWeatherWind HumidityBarometerVisibility
6:50 AM
Mon, Aug 31
50 °FPassing clouds.3 mph94%30.07 "HgN/A
6:20 AM50 °FPassing clouds.3 mph94%30.07 "HgN/A
8:20 PM
Sun, Aug 30
57 °FPassing clouds.6 mph82%30.07 "HgN/A
7:50 PM61 °FPassing clouds.10 mph77%30.04 "HgN/A
7:20 PM61 °FPassing clouds.15 mph77%30.04 "HgN/A
6:50 PM61 °FPassing clouds.16 mph77%30.04 "HgN/A
6:20 PM63 °FPassing clouds.14 mph73%30.04 "HgN/A
5:50 PM63 °FScattered clouds.15 mph68%30.04 "HgN/A
5:20 PM64 °FScattered clouds.16 mph68%30.04 "HgN/A
4:50 PM64 °FScattered clouds.12 mph73%30.04 "HgN/A
4:20 PM63 °FScattered clouds.10 mph73%30.04 "HgN/A
3:50 PM64 °FScattered clouds.10 mph68%30.04 "HgN/A
3:20 PM64 °FScattered clouds.13 mph73%30.04 "HgN/A
2:50 PM63 °FScattered clouds.14 mph73%30.04 "HgN/A
2:20 PM63 °FScattered clouds.14 mph73%30.04 "HgN/A
1:50 PM63 °FScattered clouds.17 mph73%30.04 "HgN/A
1:20 PM64 °FScattered clouds.15 mph68%30.04 "HgN/A
12:50 PM64 °FScattered clouds.13 mph68%30.04 "HgN/A
12:20 PM63 °FScattered clouds.17 mph68%30.04 "HgN/A
11:50 AM64 °FScattered clouds.16 mph68%30.04 "HgN/A
11:20 AM63 °FScattered clouds.16 mph68%30.04 "HgN/A
10:50 AM63 °FPassing clouds.10 mph77%30.04 "HgN/A
10:20 AM61 °FPassing clouds.9 mph83%30.04 "HgN/A
9:50 AM61 °FPassing clouds.10 mph83%30.04 "HgN/A
9:20 AM61 °FPassing clouds.10 mph77%30.04 "HgN/A
8:50 AM59 °FPassing clouds.9 mph82%30.04 "HgN/A
Weather by CustomWeather, © 2015

See weather overviewHow to use our weather pages